Location: Battersea Observatory
(44.4318°N, 76.3841°W)
Time: 01:19:12
(UTC-04:00)

deb Explorer IX - Visible Passes

Search period start: 10 August 2022 00:00
Search period end: 20 August 2022 00:00
Orbit: 532 x 1067 km, 38.8° (Epoch: 09 August)

Date Brightness Start Highest point End Pass type
(mag) Time Alt. Az. Time Alt. Az. Time Alt. Az.
10 Aug ? 04:38:24 11° S 04:41:26 18° SSE 04:45:05 10° ESE visible
11 Aug ? 04:09:58 14° SSE 04:11:29 16° SSE 04:14:39 10° ESE visible
12 Aug ? 03:41:30 14° SSE 03:41:33 14° SE 03:44:12 10° ESE visible
12 Aug ? 05:22:29 10° SW 05:26:58 37° SSE 05:32:08 10° E visible
13 Aug ? 03:13:01 11° SE 03:13:01 11° SE 03:13:39 10° ESE visible
13 Aug ? 04:53:50 17° SW 04:56:58 34° SSE 05:01:52 10° E visible
14 Aug ? 04:25:20 25° SSW 04:26:59 32° SSE 04:31:36 10° E visible
15 Aug ? 03:56:50 30° SSE 03:57:01 30° SSE 04:01:21 10° E visible
16 Aug ? 03:28:20 24° SE 03:28:20 24° SE 03:31:07 10° ESE visible
16 Aug ? 05:09:09 14° WSW 05:12:49 44° S 05:17:53 10° ESE visible
17 Aug ? 02:59:51 15° ESE 02:59:51 15° ESE 03:00:54 10° ESE visible
17 Aug ? 04:40:40 26° SW 04:42:48 43° S 04:47:39 10° ESE visible
18 Aug ? 04:12:14 39° SSW 04:12:48 41° S 04:17:25 10° ESE visible
19 Aug ? 03:43:51 34° SE 03:43:51 34° SE 03:47:13 10° ESE visible
19 Aug ? 05:24:41 11° WSW 05:28:41 34° SSW 05:33:22 10° SE visible
